Temperature
13 13 13 13 13 13 13 13 13 13 13 13 13 13 12 12 12 12 12 12 12 12 12 12 12 12 12 12 12 12 12 12 12 12 12 12 12 12 12 12 12 12 12
12 12 12 12 12 12 12 12 12 12 12 12 12 12 12 12 12 12 12 12 12 12 12 12 12 12 12 12 12 12 12 12 12 12 12 12 12 12 12 12 12 12 11
12 12 12 12 12 12 12 12 12 12 12 12 12 12 12 12 12 12 12 11 11 12 12 12 11 11 11 11 11 11 11 11 11 11 11 11 11 11 11 11 11 11 11
12 12 12 12 12 12 12 11 11 11 11 11 11 11 11 11 11 11 11 11 11 11 11 11 11 11 11 11 11 11 11 11 11 11 11 11 11 11 11 11 11 11 11
11 11 11 11 11 11 11 11 11 11 11 11 11 11 11 11 11 11 11 11 11 11 11 11 11 11 11 11 11 11 11 11 11 10 10 10 10 10 10 10 10 10 10
11 11 11 11 11 11 11 11 11 11 11 11 11 10 10 10 10 10 10 10 10 10 10 10 10 10 11 10 10 10 10 10 10 10 10 10 10 10 10 9 9 9 9
11 11 11 11 11 11 11 11 10 10 10 10 10 10 10 10 10 10 10 10 10 10 10 10 10 10 10 10 10 10 10 10 10 9 9 9 9 9 9 9 9 9 9
10 10 10 10 10 10 10 10 10 10 10 10 9 9 9 9 9 9 9 9 9 9 9 9 9 9 9 9 9 9 9 9 9 9 9 9 9 9 9 9 9 9 8
10 10 10 10 10 10 10 10 10 10 10 9 9 9 9 9 8 8 9 9 9 9 9 9 9 9 9 9 9 9 9 9 9 9 8 8 8 8 8 8 8 8 8
9 9 9 10 10 9 9 9 9 9 9 9 9 9 9 8 8 7 8 8 8 8 8 8 8 8 8 8 8 8 8 8 8 8 8 8 8 8 7 7 8 8 8
9 9 9 9 9 9 9 9 9 9 8 8 8 8 8 8 8 7 7 7 7 8 8 8 8 8 8 8 8 8 8 8 8 7 7 7 7 7 7 7 7 7 7
8 8 8 8 8 8 8 8 8 8 8 8 8 8 8 8 7 7 7 6 6 7 7 7 7 7 7 7 7 7 7 7 7 7 7 7 7 7 7 7 7 6 6
8 8 8 8 8 8 8 8 8 8 8 8 7 7 7 7 7 7 7 6 6 6 6 7 7 7 7 7 7 7 7 7 7 7 6 6 6 6 6 6 6 6 6
8 8 8 7 7 7 7 7 7 7 7 7 7 7 7 7 7 7 6 6 5 5 5 6 6 6 6 6 6 6 6 6 6 6 6 6 6 6 6 6 6 6 6
7 7 7 7 7 7 7 7 7 7 7 7 7 7 6 6 6 6 6 6 5 4 4 5 5 6 5 5 5 5 5 5 5 5 5 5 5 5 5 5 5 5 5
7 7 7 7 7 6 6 6 6 6 6 6 6 6 6 6 6 6 5 5 5 4 4 4 5 5 5 5 4 4 5 5 5 5 5 5 5 4 4 4 4 4 4
6 6 6 6 6 6 6 6 6 6 6 6 6 5 5 5 5 5 5 5 4 4 4 4 4 4 4 4 4 4 4 4 4 4 4 4 4 4 4 4 4 4 4
6 6 6 5 5 5 5 5 5 5 5 5 5 5 5 5 5 4 4 4 4 4 3 3 3 3 3 3 3 3 3 3 3 3 3 3 3 3 3 3 3 3 3
5 5 5 5 5 5 5 5 5 5 4 4 4 4 4 4 4 4 4 4 3 3 3 2 3 3 3 3 3 3 3 3 3 3 3 3 3 3 2 2 2 2 2
5 5 5 5 4 4 4 4 4 4 4 4 4 4 4 3 3 3 3 3 3 2 2 2 2 2 2 2 2 2 2 2 2 2 2 2 2 2 2 2 2 2 2
5 4 4 4 4 4 4 4 3 3 3 3 3 3 3 3 3 3 2 2 2 2 2 1 1 1 1 1 2 2 1 1 1 1 2 1 1 1 1 1 1 1 1
4 4 4 4 4 3 3 3 3 3 2 2 2 2 2 2 2 2 2 2 2 1 1 1 1 1 1 1 1 1 1 0 0 1 1 1 1 1 1 1 1 1 1
3 3 3 3 3 3 3 3 2 2 2 2 2 2 2 2 1 1 1 1 1 1 1 1 0 0 0 0 -0 -0 -0 -0 -0 -0 -0 -0 0 0 0 0 0 0 0
3 3 3 3 2 2 2 2 2 2 1 1 1 1 1 1 1 1 1 1 1 1 0 0 0 0 -0 -0 -0 -1 -1 -1 -1 -1 -1 -1 -1 -1 -1 -1 -0 -0 -0
2 2 2 2 2 2 2 2 1 1 1 1 1 1 1 1 1 0 0 0 -0 -0 -0 -0 -0 -0 -0 -0 -1 -1 -1 -1 -1 -1 -1 -2 -2 -1 -1 -1 -1 -1 -1
2 2 2 2 2 1 1 1 1 0 0 0 0 0 0 0 0 -0 -1 -1 -1 -1 -1 -1 -1 -1 -1 -1 -1 -1 -1 -2 -2 -2 -2 -2 -2 -3 -3 -2 -2 -2 -2
Wind_Speed
4 4 4 4 4 3 3 3 2 3 3 3 3 2 3 3 3 3 4 5 4 3 3 3 2 1 2 2 2 2 2 2 2 2 2 3 4 4 5 5 5 5 5
4 4 4 4 3 3 3 2 2 2 2 3 3 3 3 3 2 2 2 4 5 5 4 4 4 3 3 3 3 3 3 3 3 3 3 4 4 5 5 5 6 6 6
5 4 4 3 3 3 3 2 3 2 2 3 3 3 3 3 2 2 2 2 3 5 6 5 5 5 4 3 3 3 3 3 3 4 4 4 5 5 5 6 6 6 7
5 4 3 3 3 3 2 2 2 2 2 2 2 2 2 3 3 2 2 2 2 2 4 5 5 6 5 4 3 2 2 3 4 4 4 5 5 5 6 6 6 7 7
5 4 3 3 3 3 2 2 2 2 2 2 2 2 2 2 3 3 4 4 3 2 2 3 4 6 6 5 4 3 3 3 3 3 4 5 5 6 6 7 7 8 8
4 4 3 3 3 2 2 2 2 2 2 2 2 2 2 2 3 3 3 3 3 3 3 2 2 3 5 5 5 4 3 3 3 3 4 5 6 6 7 7 7 8 8
4 4 3 3 3 2 3 3 2 3 2 2 2 2 2 2 2 2 2 2 2 3 3 3 2 2 2 3 4 5 5 4 4 4 5 5 6 7 8 8 8 8 8
4 3 3 3 3 2 3 3 3 2 2 1 1 1 1 2 1 0 1 1 1 2 3 3 3 3 3 2 2 4 5 5 5 5 5 6 7 8 8 9 9 9 9
4 3 3 3 3 3 3 3 3 3 2 1 0 1 1 2 1 1 1 0 1 1 2 3 3 3 3 2 2 2 4 5 5 5 6 7 7 8 9 9 8 8 9
4 3 3 3 3 2 3 3 3 3 3 2 1 0 1 0 2 1 1 1 1 2 3 2 3 3 2 2 2 3 4 5 5 6 6 7 8 8 9 9 9 9 9
3 3 3 3 3 2 2 2 2 2 2 2 2 1 1 1 2 2 2 2 2 2 2 3 3 3 3 2 2 3 4 5 6 6 7 7 8 8 9 9 9 9 9
3 3 3 3 3 2 3 2 2 3 2 2 2 2 2 1 1 2 3 3 3 3 3 3 3 3 3 3 3 3 4 5 6 7 8 8 8 8 9 10 10 10 10
3 4 4 3 3 3 3 3 2 2 2 3 3 2 2 2 2 2 3 3 4 3 3 3 3 3 3 4 4 4 5 6 7 8 8 8 8 9 9 10 10 10 11
4 4 4 4 4 4 3 3 2 3 3 3 3 3 2 2 2 3 3 3 3 4 4 4 3 4 4 5 5 6 6 6 7 8 9 9 9 9 9 10 10 10 10
3 4 4 4 4 4 3 3 3 3 3 3 3 3 3 2 3 3 3 4 4 4 5 4 3 4 5 6 6 7 7 7 8 8 9 9 10 10 10 10 11 11 10
4 4 4 4 4 4 4 4 3 4 4 4 3 3 3 3 3 3 4 4 5 5 5 4 5 5 5 6 7 8 8 8 9 9 10 10 10 11 11 11 11 10 9
5 5 5 5 5 5 5 5 4 5 5 4 4 4 4 4 3 3 4 4 5 5 7 6 6 6 7 7 7 7 8 8 8 9 10 11 11 11 12 11 10 10 10
5 5 5 5 5 5 5 6 5 5 6 5 5 5 5 4 5 4 4 5 5 6 6 8 7 7 8 8 7 7 7 8 8 9 10 11 11 11 11 11 11 10 11
5 5 5 6 6 6 6 6 6 6 6 6 6 6 6 6 6 5 6 6 5 5 6 7 7 7 7 7 7 7 7 7 8 8 9 10 11 12 12 12 12 12 12
5 6 6 6 6 6 6 6 6 6 6 6 6 7 7 7 7 7 6 7 6 6 6 6 7 7 7 7 6 6 6 6 6 7 8 9 10 11 12 12 12 12 13
5 5 5 6 6 6 6 6 6 6 7 7 7 7 7 8 8 8 6 7 7 6 6 7 7 7 7 7 6 6 7 7 7 6 6 7 7 7 9 10 11 12 12
4 5 5 6 6 6 6 8 7 7 7 7 7 7 7 8 9 10 11 11 10 9 8 8 8 9 9 9 7 7 7 7 6 4 6 7 7 7 8 9 10 12 12
5 5 6 6 7 7 8 9 9 7 8 8 8 7 6 6 8 8 9 10 11 14 14 11 11 11 10 10 9 9 8 9 9 6 6 8 7 8 8 10 12 13 13
5 6 6 7 7 8 9 10 10 9 8 9 9 9 9 8 8 8 8 9 9 10 11 11 11 12 11 10 10 10 9 9 8 6 6 8 7 8 8 9 11 12 13
6 6 6 7 8 8 9 10 9 7 7 9 9 9 9 9 10 10 9 10 10 10 10 13 14 14 14 13 11 7 7 6 7 7 5 6 7 7 8 8 9 11 12
6 6 6 7 8 8 9 10 10 7 7 7 7 8 10 10 10 11 10 10 11 10 9 8 9 11 11 11 12 10 8 7 7 6 5 5 6 5 5 6 6 7 9
Wind_Direction
134 130 126 125 123 119 123 109 107 103 98 96 97 122 127 131 136 133 103 85 70 61 55 54 65 102 110 93 80 51 52 51 34 11 355 355 353 348 341 339 336 329 322
131 131 127 124 119 116 114 118 113 109 99 87 82 83 115 114 115 115 100 96 77 54 45 44 44 52 69 81 75 70 54 49 42 31 20 5 349 337 329 326 324 325 325
136 135 130 126 118 114 113 112 112 109 103 99 100 89 81 90 99 104 99 90 94 73 55 44 41 43 39 43 55 54 37 23 21 15 360 348 342 336 333 329 325 322 320
142 140 131 122 122 122 121 118 121 120 107 103 104 97 89 90 78 78 89 88 81 78 72 52 40 36 30 22 19 30 35 27 17 6 352 336 329 329 328 325 326 325 321
147 140 132 124 133 132 129 126 123 129 115 95 91 92 87 97 95 79 74 69 63 55 55 71 58 43 32 26 24 26 23 12 1 348 344 339 328 323 321 318 318 317 316
141 135 135 135 135 139 139 138 124 114 115 108 102 88 81 91 93 88 78 68 56 48 41 47 63 52 37 24 22 20 6 355 343 337 337 335 332 326 323 318 314 314 313
145 143 144 144 146 149 145 142 133 124 111 117 133 111 99 101 102 94 79 71 54 38 30 28 25 11 16 28 28 21 7 352 342 335 329 323 323 323 317 314 313 313 313
151 155 157 155 153 152 149 147 146 140 122 132 184 181 199 185 148 93 102 49 14 16 12 12 10 3 357 356 34 18 4 358 352 343 332 324 318 316 317 309 306 307 308
157 160 162 161 162 165 165 168 166 162 159 161 217 242 231 234 203 183 183 205 329 338 344 356 356 349 346 349 352 8 354 345 340 335 334 334 327 321 321 320 315 314 310
163 160 166 163 167 167 167 173 178 184 179 187 174 268 316 321 241 226 197 215 294 311 317 330 335 338 337 327 343 348 341 333 328 327 327 327 327 322 319 320 320 315 314
166 168 172 168 168 166 167 164 171 183 191 198 197 194 195 230 256 256 257 252 272 285 298 308 314 323 330 321 323 340 337 324 320 318 318 318 321 323 322 319 318 316 310
171 178 184 181 179 175 177 177 184 189 195 196 204 206 206 214 235 255 263 267 275 281 287 288 288 296 300 297 313 331 319 308 306 307 308 310 315 318 319 317 313 311 307
182 191 192 193 190 184 181 183 187 193 199 198 208 217 217 225 236 252 260 271 277 285 278 267 268 279 281 285 293 296 297 299 298 298 299 302 306 310 311 310 310 309 307
187 188 192 197 194 189 187 187 193 201 203 203 210 214 219 225 226 236 248 261 271 271 267 268 268 268 273 279 292 286 287 286 290 292 293 296 298 301 302 303 303 302 301
180 185 191 195 197 195 194 193 201 209 210 213 214 216 224 229 233 239 241 244 251 266 270 270 268 270 280 278 286 283 282 281 282 284 287 290 293 294 294 295 297 296 293
186 188 193 199 201 202 202 204 209 216 216 217 220 224 233 236 235 237 236 242 249 258 268 276 274 278 283 284 285 283 280 278 272 275 278 283 287 289 289 289 290 290 289
194 196 200 203 203 205 207 209 213 215 217 219 223 228 238 241 239 240 242 244 247 251 261 273 274 279 277 280 282 280 280 279 276 270 273 278 282 284 284 284 284 286 286
202 203 203 206 209 211 212 215 218 222 223 225 230 233 241 243 245 246 244 246 249 250 257 269 274 275 276 281 283 283 281 279 279 276 272 276 278 280 282 281 279 280 282
207 210 211 214 215 215 216 221 224 229 231 234 236 237 241 241 245 246 247 251 253 253 254 261 271 276 277 278 283 283 281 279 278 275 275 276 276 277 277 277 277 277 278
209 214 218 220 220 220 220 222 226 233 237 240 241 242 243 242 246 248 250 252 255 255 254 256 265 271 274 274 274 279 282 280 279 277 277 277 276 274 273 273 274 276 277
214 216 220 224 225 225 224 223 224 233 239 242 244 245 246 247 251 252 251 252 252 254 256 258 263 268 268 268 267 273 275 282 280 275 281 277 276 276 275 269 268 273 275
221 220 223 227 231 233 226 227 231 237 242 244 247 250 251 248 248 251 253 255 255 255 256 259 263 263 267 270 271 268 272 278 281 273 278 279 275 274 275 271 272 275 276
227 231 232 234 237 236 230 234 237 243 245 246 249 252 254 252 251 254 255 256 257 257 258 260 261 262 266 267 268 266 263 266 270 273 279 278 276 276 278 275 272 271 274
228 233 234 237 241 240 233 239 239 242 246 248 248 248 252 254 251 253 259 261 262 260 257 257 259 264 266 267 265 266 269 273 277 270 262 274 278 278 280 277 270 268 272
234 238 239 238 241 243 235 238 240 245 247 251 252 251 251 255 255 254 258 261 264 266 263 259 262 266 268 266 262 259 258 260 270 270 257 265 276 284 281 274 268 264 267
238 242 245 244 243 246 239 238 239 243 247 253 255 253 249 251 255 253 255 259 262 266 268 267 262 260 261 257 250 245 245 248 265 269 250 252 269 281 282 269 270 272 272
Height
1532 1533 1534 1535 1537 1537 1538 1539 1539 1540 1540 1541 1541 1542 1542 1543 1544 1544 1544 1544 1545 1545 1545 1545 1546 1546 1546 1546 1546 1546 1545 1545 1545 1545 1544 1544 1543 1543 1542 1542 1541 1541 1540
1531 1532 1533 1534 1535 1536 1537 1538 1538 1539 1539 1540 1540 1541 1541 1542 1543 1543 1543 1544 1544 1544 1544 1544 1544 1544 1545 1544 1544 1544 1544 1544 1543 1543 1542 1542 1542 1541 1540 1540 1539 1539 1538
1530 1531 1532 1533 1534 1535 1536 1537 1537 1538 1538 1539 1539 1540 1540 1540 1541 1542 1542 1542 1542 1542 1542 1543 1543 1543 1543 1543 1542 1542 1542 1542 1541 1541 1540 1540 1539 1539 1538 1537 1537 1536 1535
1529 1530 1531 1532 1533 1534 1535 1536 1536 1537 1537 1538 1538 1538 1538 1539 1539 1540 1540 1541 1541 1541 1541 1541 1541 1541 1541 1541 1540 1540 1540 1539 1539 1539 1538 1537 1537 1536 1536 1535 1534 1533 1533
1527 1529 1530 1531 1532 1533 1534 1534 1535 1536 1536 1536 1537 1537 1537 1537 1537 1538 1539 1539 1539 1539 1539 1539 1539 1539 1539 1539 1538 1538 1537 1537 1537 1536 1535 1535 1534 1534 1533 1532 1531 1531 1530
1526 1527 1528 1530 1531 1532 1532 1533 1534 1534 1535 1535 1535 1536 1536 1535 1536 1536 1537 1537 1537 1538 1538 1537 1537 1537 1537 1536 1536 1535 1535 1535 1534 1534 1533 1532 1532 1531 1530 1530 1529 1528 1527
1524 1525 1526 1528 1529 1530 1531 1532 1532 1533 1533 1533 1534 1534 1535 1534 1535 1534 1535 1536 1536 1536 1536 1535 1535 1535 1534 1534 1533 1533 1533 1532 1532 1531 1530 1530 1529 1528 1527 1526 1525 1524 1523
1522 1523 1524 1526 1527 1528 1529 1530 1530 1531 1531 1532 1533 1533 1534 1535 1533 1533 1533 1534 1534 1534 1533 1533 1533 1532 1532 1532 1531 1530 1530 1530 1529 1528 1528 1527 1526 1525 1524 1523 1522 1521 1520
1520 1521 1522 1524 1525 1526 1527 1528 1528 1529 1529 1530 1531 1532 1533 1533 1532 1531 1531 1531 1532 1531 1531 1530 1530 1530 1529 1529 1528 1528 1527 1527 1526 1525 1525 1524 1523 1522 1521 1520 1518 1517 1517
1517 1519 1520 1521 1522 1524 1525 1526 1526 1527 1528 1528 1528 1529 1530 1530 1530 1529 1529 1529 1529 1529 1529 1528 1527 1527 1527 1526 1526 1525 1525 1524 1523 1522 1521 1520 1519 1518 1517 1516 1515 1514 1513
1515 1517 1518 1519 1520 1521 1522 1523 1524 1524 1525 1525 1526 1526 1526 1527 1527 1527 1527 1527 1526 1526 1526 1525 1525 1524 1524 1523 1522 1522 1521 1521 1520 1519 1518 1517 1516 1515 1513 1512 1511 1510 1509
1513 1514 1515 1517 1518 1519 1520 1521 1521 1522 1522 1523 1523 1523 1524 1524 1524 1524 1524 1523 1523 1523 1522 1522 1521 1521 1520 1520 1519 1518 1518 1517 1516 1515 1514 1513 1512 1511 1509 1508 1507 1505 1504
1511 1512 1513 1514 1515 1516 1517 1518 1518 1519 1519 1520 1520 1520 1521 1521 1522 1521 1521 1520 1520 1519 1519 1518 1518 1517 1517 1516 1516 1515 1514 1513 1512 1511 1510 1509 1507 1506 1505 1504 1502 1501 1500
1508 1509 1510 1511 1512 1513 1514 1515 1515 1516 1516 1517 1517 1517 1517 1518 1518 1518 1518 1518 1517 1516 1515 1515 1514 1514 1513 1512 1512 1511 1510 1509 1508 1507 1506 1504 1503 1502 1500 1499 1497 1496 1495
1505 1506 1507 1508 1509 1510 1511 1511 1512 1513 1513 1513 1514 1514 1514 1514 1514 1514 1515 1515 1515 1513 1512 1511 1511 1510 1509 1508 1507 1506 1505 1504 1503 1502 1501 1499 1498 1497 1495 1494 1492 1491 1490
1502 1503 1504 1505 1506 1506 1507 1508 1508 1509 1509 1509 1510 1510 1510 1510 1511 1511 1511 1511 1510 1509 1507 1506 1506 1506 1505 1504 1502 1501 1500 1499 1498 1497 1495 1494 1493 1491 1490 1488 1487 1486 1484
1498 1499 1500 1501 1502 1503 1504 1504 1505 1505 1505 1505 1506 1506 1506 1507 1507 1507 1506 1506 1506 1505 1503 1501 1502 1501 1500 1499 1498 1496 1495 1494 1493 1491 1490 1489 1487 1486 1484 1483 1481 1480 1479
1495 1496 1497 1498 1498 1499 1500 1500 1501 1501 1501 1501 1502 1502 1502 1502 1502 1502 1502 1502 1501 1500 1499 1497 1496 1496 1495 1494 1493 1491 1490 1489 1487 1486 1485 1483 1482 1480 1479 1477 1476 1474 1473
1491 1492 1493 1494 1494 1495 1495 1496 1497 1497 1497 1497 1497 1497 1497 1498 1498 1498 1497 1497 1496 1495 1494 1493 1491 1491 1490 1489 1487 1486 1484 1483 1482 1480 1479 1477 1476 1474 1473 1471 1470 1468 1467
1487 1488 1489 1489 1490 1491 1491 1492 1492 1492 1492 1493 1492 1492 1492 1493 1492 1492 1492 1492 1491 1490 1489 1488 1486 1485 1484 1483 1482 1480 1479 1478 1476 1475 1473 1472 1470 1469 1467 1465 1464 1462 1461
1483 1484 1484 1485 1485 1486 1486 1487 1487 1487 1488 1488 1487 1487 1487 1487 1487 1487 1487 1486 1486 1485 1484 1483 1481 1480 1479 1478 1476 1475 1474 1472 1470 1469 1468 1466 1465 1463 1461 1459 1458 1456 1455
1478 1479 1479 1480 1481 1481 1482 1482 1482 1482 1483 1482 1482 1482 1482 1482 1481 1481 1481 1481 1481 1480 1478 1477 1476 1475 1473 1473 1471 1470 1468 1466 1464 1464 1463 1461 1459 1457 1455 1454 1452 1450 1449
1474 1474 1475 1475 1475 1476 1477 1477 1477 1478 1477 1477 1477 1477 1476 1476 1476 1475 1475 1474 1474 1473 1473 1472 1470 1469 1468 1467 1466 1464 1463 1461 1459 1458 1457 1454 1453 1451 1450 1448 1446 1444 1443
1469 1469 1470 1470 1470 1471 1471 1472 1472 1472 1472 1471 1471 1471 1470 1469 1469 1469 1469 1468 1467 1466 1466 1465 1464 1463 1462 1461 1460 1459 1457 1456 1454 1453 1452 1449 1447 1445 1444 1442 1440 1438 1437
1464 1464 1465 1465 1465 1465 1466 1466 1466 1466 1465 1465 1465 1464 1464 1463 1463 1463 1462 1461 1460 1459 1459 1458 1457 1456 1455 1454 1454 1453 1451 1450 1447 1446 1446 1444 1441 1439 1437 1435 1434 1432 1430
1459 1459 1459 1459 1459 1459 1460 1460 1460 1460 1459 1459 1458 1458 1458 1457 1457 1457 1456 1455 1453 1453 1452 1451 1450 1449 1448 1447 1447 1446 1445 1444 1441 1440 1439 1438 1436 1434 1431 1429 1428 1426 1424